Regional Weather Roundup
Issued by NWS

Home | Current Version | Previous Version | Graphics & Text | Print | Product List | Glossary On
Versions: 1 2 3 4 5 6 7 8 9 10 11 12 13 14 15 16 17 18 19 20 21 22 23 24 25 26 27 28
000
ASUS45 KCYS 241510
RWRWY

WYOMING REGIONAL WEATHER ROUNDUP
NATIONAL WEATHER SERVICE CHEYENNE WY
900 AM MDT SUN SEP 24 2017

NOTE:  "FAIR" INDICATES FEW OR NO CLOUDS BELOW 12,000 FEET
WITH NO SIGNIFICANT WEATHER AND/OR OBSTRUCTIONS TO VISIBILITY.

WYZ001-241600-
YELLOWSTONE NATIONAL PARK

CITY           SKY/WX    TMP DP  RH WIND       PRES   REMARKS
LK YELLOWSTONE NOT AVBL
W YELLOWSTONE  NOT AVBL

$$
WYZ002>013-054>058-071-098>099-241600-
NORTHERN WYOMING

CITY           SKY/WX    TMP DP  RH WIND       PRES   REMARKS
JACKSON        FAIR      38  31  76 N20       29.97S WCI  28
CODY           CLOUDY    37  35  92 NE8       30.10S WCI  31
GREYBULL       CLOUDY    44  39  82 NW8       30.06S
WORLAND        CLOUDY    41  40  96 NW9       30.05S
SHERIDAN       CLOUDY    41  40  96 NW9       30.11R
BUFFALO        CLOUDY    38  36  92 N13       30.09S WCI  30
GILLETTE       CLOUDY    39  39 100 N12       30.06S FOG     WCI  32
HULETT         CLOUDY    41  39  93 N6        30.07S
NEWCASTLE      FAIR      43  41  93 NW12      30.03S

$$
WYZ014>020-022>026-101>103-241600-
CENTRAL WYOMING

CITY           SKY/WX    TMP DP  RH WIND       PRES   REMARKS
BIG PINEY      CLOUDY    41  33  73 N8        29.93F
PINEDALE       CLOUDY    37  34  87 NW8       29.93F WCI  31
DUBOIS         CLOUDY    34  30  86 E7        30.02S WCI  28
LANDER         CLOUDY    38  35  89 W3        30.04R
RIVERTON       CLOUDY    38  36  92 NE5       30.05S WCI  34
CASPER         LGT RAIN  38  36  92 NE10      30.06R WCI  31
DOUGLAS        CLOUDY    40  37  89 N9        30.06R WCI  34

$$
WYZ021-027>030-104>119-241600-
SOUTHERN WYOMING

CITY           SKY/WX    TMP DP  RH WIND       PRES   REMARKS
EVANSTON       LGT SNOW  35  34  96 N9        29.90F FOG     WCI  28
FORT BRIDGER   SNOW      33  33 100 NE9       29.94R VSB 1/4 WCI  26
ROCK SPRINGS   CLOUDY    34  30  85 NE25G39   29.93S WCI  21
DIXON          CLOUDY    37  33  87 CALM      29.92S
RAWLINS        CLOUDY    39  34  82 NE15      29.96S WCI  31
SARATOGA       CLOUDY    39  39 100 S3        29.95S
LARAMIE        CLOUDY    40  36  86 E14       29.98S WCI  32
CHEYENNE       CLOUDY    41  39  93 NE10      30.01S
TORRINGTON     CLOUDY    45  44  97 VRB3      30.01R
PINE BLUFFS    CLOUDY    43  43 100 MISG      30.02F

$$




USA.gov is the U.S. government's official web portal to all federal, state and local government web resources and services.